Wetterdaten am Flugplatz MSG Übersee

alte Datensätze gelöscht
63 aktuelle Wetterdateneinträge gefunden

Datum/Uhrzeit   Windrichtung/Grad    Geschw./kmh    Temp./C°    Luftdruck/mbar    Spannung/Volt   
2026-09-02 00:06 NW/312 1 17 1025 12,33
2026-09-02 00:16 NW/312 0 17 1025 12,38
2026-09-02 00:26 NW/312 2 17 1025 12,40
2026-09-02 00:36 NW/312 1 17 1025 12,43
2026-09-02 00:46 NW/312 5 16 1025 12,29
2026-09-02 00:56 NW/312 3 16 1025 12,35
2026-09-02 01:06 NW/312 0 16 1025 12,39
2026-09-02 01:16 NW/312 1 16 1025 12,45
2026-09-02 01:26 NW/312 1 16 1025 12,13
2026-09-02 01:36 NW/312 0 16 1025 12,30
2026-09-02 01:46 NW/312 0 16 1025 12,33
2026-09-02 01:56 NW/312 0 16 1025 12,36
2026-09-02 02:06 NW/312 0 15 1025 12,39
2026-09-02 02:16 NW/312 1 15 1025 12,27
2026-09-02 02:26 NW/312 1 15 1025 12,32
2026-09-02 02:37 NW/312 1 15 1025 12,35
2026-09-02 02:47 NW/312 3 15 1025 12,43
2026-09-02 02:57 NW/312 3 15 1025 12,27
2026-09-02 03:07 NW/312 2 15 1025 12,30
2026-09-02 03:17 NW/312 2 15 1025 12,33
2026-09-02 03:27 SW/232 7 15 1025 12,36
2026-09-02 03:37 S/180 8 15 1025 12,24
2026-09-02 03:47 NW/298 7 15 1025 12,27
2026-09-02 03:57 NW/308 4 15 1025 12,30
2026-09-02 04:07 NW/310 2 15 1024 12,32
2026-09-02 04:17 NW/310 0 15 1024 12,21
2026-09-02 04:27 NW/310 1 15 1024 12,24
2026-09-02 04:37 NW/309 1 14 1024 12,29
2026-09-02 04:47 NW/309 1 14 1024 12,29
2026-09-02 04:57 W/269 2 14 1024 12,18
2026-09-02 05:07 S/196 1 14 1024 12,23
2026-09-02 05:17 S/188 0 14 1024 12,26
2026-09-02 05:28 S/186 2 14 1024 12,21
2026-09-02 05:38 S/186 5 14 1024 12,26
2026-09-02 05:48 S/187 7 14 1024 12,27
2026-09-02 05:58 SW/213 3 13 1024 12,17
2026-09-02 06:08 SW/218 1 14 1024 12,20
2026-09-02 06:18 SW/219 2 13 1024 12,23
2026-09-02 06:28 S/196 4 14 1024 12,16
2026-09-02 06:38 SW/214 3 14 1024 12,20
2026-09-02 06:48 SW/219 1 14 1024 12,23
2026-09-02 06:58 S/169 3 14 1024 12,13
2026-09-02 07:08 SO/116 2 14 1024 12,20
2026-09-02 07:18 SW/212 5 14 1024 12,23
2026-09-02 07:28 S/182 4 14 1025 12,14
2026-09-02 07:38 SO/154 5 14 1025 12,18
2026-09-02 07:48 SO/153 2 14 1025 12,23
2026-09-02 07:58 SW/214 2 15 1025 12,14
2026-09-02 08:09 SW/228 1 15 1025 12,20
2026-09-02 08:19 SW/230 1 16 1025 12,23
2026-09-02 08:29 SW/221 2 17 1025 12,30
2026-09-02 08:39 S/197 2 18 1025 12,21
2026-09-02 08:49 O/77 2 19 1025 12,33
2026-09-02 08:59 SO/121 3 20 1025 12,33
2026-09-02 09:09 S/161 3 21 1025 12,39
2026-09-02 09:19 SO/151 2 21 1025 12,43
2026-09-02 09:29 S/202 6 22 1025 12,52
2026-09-02 09:39 S/178 9 23 1025 12,64
2026-09-02 09:49 S/163 7 24 1025 12,26
2026-09-02 09:59 S/162 5 25 1025 12,60
2026-09-02 10:09 SO/155 4 25 1025 12,67
2026-09-02 10:20 W/275 4 26 1025 12,71
2026-09-02 10:30 O/90 5 27 1025 12,68